Location: Unspecified
(42.3650°N, 71.1030°W)
Time: 04:14:04
(UTC+00:00)

Explorer 11/Cluster Stage 4 - Pass Details

Date: 27 June 2024
Orbit: 465 x 1216 km, 28.8° (Epoch: 13 July)

Event Time Altitude Azimuth Distance (km) Brightness Sun altitude
Rises 03:44:49 0° 258° (WSW) 4,124 10.3 -22.8°
Reaches altitude 10° 03:48:55 10° 240° (WSW) 3,136 9.5 -23.0°
Enters shadow 03:51:11 15° 225° (SW) 2,759 9.1 -23.1°
Maximum altitude 03:53:34 17° 204° (SSW) 2,579 - -23.2°
Drops below altitude 10° 03:58:00 10° 167° (SSE) 2,953 - -23.3°
Sets 04:01:43 0° 148° (SSE) 3,783 - -23.5°
